Weather Roundup
Issued by NWS

Home | Current Version | Previous Version | Text Only | Print | Product List | Glossary On
Versions: 1 2 3 4 5 6 7 8 9 10 11 12 13 14 15 16 17 18 19 20 21 22 23 24 25 26 27 28 29 30 31 32 33 34 35 36 37 38 39 40 41 42 43 44 45 46 47 48 49 50
000
NZUS93 KARX 020410
HRRWXR

CURRENT HOURLY OBSERVATIONS ACROSS
MUCH OF THE UPPER MISSISSIPPI VALLEY
NATIONAL WEATHER SERVICE LA CROSSE WI
1100 PM CDT WED OCT 01 2014


...SOUTHEAST MINNESOTA...


CITY           SKY/WX    TMP DP  RH WIND       PRES   REMARKS
ROCHESTER      CLEAR     54  53  97 S3        29.85R FOG
ROCHESTER/MAYO FAIR      56  55  95 CALM      29.85R
WINONA         FOG       55  55 100 CALM      29.83F VSB 1
AUSTIN         PTCLDY    55  54  94 CALM      29.83S FOG
ALBERT LEA     FOG       55  55 100 CALM      29.83S VSB 1/4
DODGE CENTER   FOG       54  54 100 SE3       29.85R VSB<1/4
PRESTON        CLEAR     55  53  95 SE3       29.84F FOG
OWATONNA       DRIZZLE   59  57  94 CALM      29.85R
FARIBAULT      LGT RAIN  61  59  94 SE10      29.81F
$$

...ELSEWHERE IN MINNESOTA...


CITY           SKY/WX    TMP DP  RH WIND       PRES   REMARKS
MINNEAPOLIS    CLOUDY    58  57  97 E6        29.83S FOG
INTNL FALLS    CLOUDY    54  52  93 VRB6      29.73S
DULUTH         FOG       52  50  93 SW7       29.83R VSB 1/4
RED WING       PTCLDY    57  55  94 CALM      29.83R FOG
REDWOOD FALLS  PTCLDY    55  54  96 NW3       29.82R
MANKATO        CLOUDY    61  55  82 SE9       29.81F
WORTHINGTON    MOCLDY    55  54  94 CALM      29.83S
FAIRMONT       CLOUDY    61  55  82 E7        29.82S
$$

...SOUTHWEST WISCONSIN...


CITY           SKY/WX    TMP DP  RH WIND       PRES   REMARKS
LA CROSSE      CLOUDY    61  57  87 CALM      29.83F
PRAIRIE DU CHI CLOUDY    64  58  83 CALM      29.84R
BOSCOBEL       CLOUDY    65  59  81 NE3       29.84F
LONE ROCK      CLOUDY    69  56  62 E6        29.85S
PLATTEVILLE    CLOUDY    65  59  79 SE5       29.87S
FORT MC COY    CLOUDY    61  57  88 SE7       29.85S
CAMP DOUGLAS   CLOUDY    61  61 100 SE6       29.86S
VIROQUA        CLOUDY    63  57  80 SE3       29.85F
WIS DELLS      MOCLDY    61  53  74 SE3       29.87S
$$

...ELSEWHERE IN WISCONSIN...


CITY           SKY/WX    TMP DP  RH WIND       PRES   REMARKS
MILWAUKEE      CLOUDY    64  53  67 SE14      29.91F
MADISON        CLOUDY    63  53  70 S7        29.88S
GREEN BAY      HVY RAIN  56  54  93 SE10      29.91F FOG
EAU CLAIRE     FOG       53  52  96 NE3       29.85R VSB 1/4
BLACK RVR FLS  CLOUDY    58  58 100 CALM      29.84S
MEDFORD        CLOUDY    55  53  91 SE5       29.87F
WAUSAU         CLOUDY    56  52  86 SE6       29.88S
WIS RAPIDS     RAIN      57  55  93 SE7       29.89S FOG
MARSHFIELD     CLOUDY    58  54  86 SE6       29.87S
RICE LAKE      CLOUDY    55  53  96 CALM      29.87R FOG
$$

...NORTHEAST IOWA...


CITY           SKY/WX    TMP DP  RH WIND       PRES   REMARKS
DECORAH        CLOUDY    63  61  94 VRB5      29.82F
MASON CITY     FOG       53  53 100 CALM      29.84S VSB 1/4
CHARLES CITY   CLOUDY    63  61  94 SE3       29.83F
OELWEIN        CLOUDY    63  61  94 SE5       29.84S
$$

...ELSEWHERE IN IOWA...


CITY           SKY/WX    TMP DP  RH WIND       PRES   REMARKS
DES MOINES     PTCLDY    65  63  93 CALM      29.80F FOG
IOWA CITY      CLOUDY    66  64  93 CALM      29.84F
FORT DODGE     CLEAR     59  55  88 CALM      29.82S
$$

...NORTHERN ILLINOIS...


CITY           SKY/WX    TMP DP  RH WIND       PRES   REMARKS
CHICAGO-OHARE  CLOUDY    65  51  60 SE10      29.90F
CHICAGO-MIDWAY NOT AVBL
MOLINE         CLOUDY    61  58  90 SE3       29.83F FOG
ROCKFORD       CLOUDY    64  55  72 E6        29.89F
PEORIA         CLOUDY    72  64  76 S10       29.83F
$$

NOTE: "FAIR" INDICATES FEW OR NO CLOUDS BELOW 12,000 FEET WITH NO
SIGNIFICANT WEATHER AND/OR OBSTRUCTIONS TO VISIBILITY. WIND
SPEEDS ARE IN MILES-PER-HOUR.



USA.gov is the U.S. government's official web portal to all federal, state and local government web resources and services.